| time (UTC) | temp C | wind direction | speed KPH | gust KPH | rain 1hr cm | rain 24hr cm | rain mn cm | humidity % | barometer mb |
| 20260906213919 | 28 | 139 | 12.9 | 12.9 | 0.00 | 0.05 | 0.00 | ||
| 20260906213420 | 29 | 118 | 12.9 | 8.0 | 0.00 | 0.05 | 0.00 | ||
| 20260906212420 | 29 | 127 | 11.3 | 14.5 | 0.00 | 0.05 | 0.00 | ||
| 20260906205918 | 29 | 166 | 11.3 | 12.9 | 0.00 | 0.05 | 0.00 | ||
| 20260906205419 | 29 | 125 | 14.5 | 14.5 | 0.00 | 0.05 | 0.00 | ||
| 20260906204918 | 29 | 104 | 16.1 | 17.7 | 0.00 | 0.05 | 0.00 | ||
| 20260906204418 | 30 | 97 | 14.5 | 12.9 | 0.00 | 0.05 | 0.00 | ||
| 20260906202418 | 30 | 105 | 16.1 | 17.7 | 0.00 | 0.05 | 0.00 | ||
| 20260906200916 | 30 | 165 | 11.3 | 14.5 | 0.00 | 0.05 | 0.00 | ||
| 20260906195916 | 30 | 129 | 16.1 | 12.9 | 0.00 | 0.05 | 0.00 | ||
| 20260906194417 | 30 | 160 | 11.3 | 19.3 | 0.00 | 0.05 | 0.00 | ||
| 20260906193915 | 30 | 117 | 11.3 | 12.9 | 0.00 | 0.05 | 0.00 | ||
| 20260906192416 | 30 | 127 | 12.9 | 11.3 | 0.00 | 0.05 | 0.00 | ||
| 20260906191413 | 30 | 114 | 9.7 | 8.0 | 0.00 | 0.05 | 0.00 | ||
| 20260906190912 | 30 | 115 | 12.9 | 12.9 | 0.00 | 0.05 | 0.00 | ||
| 20260906190413 | 30 | 146 | 11.3 | 16.1 | 0.00 | 0.05 | 0.00 | ||
| 20260906185911 | 30 | 143 | 9.7 | 8.0 | 0.00 | 0.05 | 0.00 | ||
| 20260906185413 | 30 | 122 | 6.4 | 8.0 | 0.00 | 0.05 | 0.00 | ||
| 20260906184412 | 30 | 153 | 14.5 | 12.9 | 0.00 | 0.05 | 0.00 | ||
| 20260906183910 | 30 | 148 | 8.0 | 6.4 | 0.00 | 0.05 | 0.00 | ||
| 20260906183412 | 30 | 159 | 9.7 | 8.0 | 0.00 | 0.05 | 0.00 | ||
| 20260906182910 | 30 | 143 | 12.9 | 14.5 | 0.00 | 0.05 | 0.00 | ||
| 20260906182412 | 30 | 131 | 8.0 | 4.8 | 0.00 | 0.05 | 0.00 | ||
| 20260906181910 | 30 | 127 | 6.4 | 6.4 | 0.00 | 0.05 | 0.00 | ||
| 20260906181411 | 30 | 114 | 11.3 | 12.9 | 0.00 | 0.05 | 0.00 | ||
| 20260906180908 | 30 | 138 | 4.8 | 6.4 | 0.00 | 0.05 | 0.00 | ||
| 20260906180410 | 30 | 127 | 11.3 | 8.0 | 0.00 | 0.05 | 0.00 | ||
| 20260906175908 | 30 | 132 | 16.1 | 14.5 | 0.00 | 0.05 | 0.00 | ||
| 20260906175409 | 31 | 120 | 6.4 | 6.4 | 0.00 | 0.05 | 0.00 | ||
| 20260906174908 | 30 | 135 | 9.7 | 8.0 | 0.00 | 0.05 | 0.00 | ||
| 20260906174409 | 30 | 121 | 14.5 | 14.5 | 0.00 | 0.05 | 0.00 | ||
| 20260906173907 | 31 | 142 | 3.2 | 3.2 | 0.00 | 0.05 | 0.00 | ||
| 20260906173409 | 30 | 152 | 3.2 | 4.8 | 0.00 | 0.05 | 0.00 | ||
| 20260906172907 | 30 | 150 | 8.0 | 6.4 | 0.00 | 0.05 | 0.00 | ||
| 20260906171906 | 31 | 128 | 11.3 | 9.7 | 0.00 | 0.05 | 0.00 | ||
| 20260906171408 | 31 | 91 | 3.2 | 4.8 | 0.00 | 0.05 | 0.00 | ||
| 20260906170906 | 31 | 89 | 4.8 | 4.8 | 0.00 | 0.05 | 0.00 | ||
| 20260906170408 | 31 | 93 | 3.2 | 1.6 | 0.00 | 0.05 | 0.00 | ||
| 20260906165905 | 31 | 125 | 8.0 | 8.0 | 0.00 | 0.05 | 0.00 | ||
| 20260906165406 | 30 | 121 | 4.8 | 8.0 | 0.00 | 0.05 | 0.00 | ||
| 20260906164904 | 30 | 146 | 4.8 | 8.0 | 0.00 | 0.05 | 0.00 | ||
| 20260906164406 | 30 | 149 | 8.0 | 4.8 | 0.00 | 0.05 | 0.00 | ||
| 20260906163904 | 30 | 55 | 0.0 | 0.0 | 0.00 | 0.05 | 0.00 | ||
| 20260906163406 | 30 | 80 | 4.8 | 6.4 | 0.00 | 0.05 | 0.00 | ||
| 20260906162904 | 30 | 73 | 6.4 | 6.4 | 0.00 | 0.05 | 0.00 | ||
| 20260906161903 | 30 | 83 | 3.2 | 3.2 | 0.00 | 0.05 | 0.00 | ||
| 20260906161405 | 30 | 100 | 8.0 | 6.4 | 0.00 | 0.05 | 0.00 | ||
| 20260906160903 | 30 | 97 | 3.2 | 4.8 | 0.00 | 0.05 | 0.00 | ||
| 20260906160404 | 30 | 83 | 4.8 | 4.8 | 0.00 | 0.05 | 0.00 | ||
| 20260906155902 | 30 | 94 | 4.8 | 4.8 | 0.00 | 0.05 | 0.00 | ||
| 20260906155404 | 30 | 118 | 3.2 | 8.0 | 0.00 | 0.05 | 0.00 | ||
| 20260906154902 | 29 | 51 | 4.8 | 4.8 | 0.00 | 0.05 | 0.00 | ||
| 20260906154403 | 30 | 97 | 3.2 | 4.8 | 0.00 | 0.05 | 0.00 | ||
| 20260906153403 | 29 | 129 | 6.4 | 6.4 | 0.00 | 0.05 | 0.00 | ||
| 20260906152901 | 29 | 135 | 6.4 | 4.8 | 0.00 | 0.05 | 0.00 | ||
| 20260906152403 | 29 | 153 | 9.7 | 9.7 | 0.00 | 0.05 | 0.00 | ||
| 20260906151901 | 29 | 136 | 6.4 | 4.8 | 0.00 | 0.05 | 0.00 | ||
| 20260906150900 | 29 | 82 | 4.8 | 4.8 | 0.00 | 0.05 | 0.00 | ||
| 20260906145859 | 28 | 115 | 8.0 | 9.7 | 0.00 | 0.05 | 0.00 | ||
| 20260906145400 | 28 | 93 | 6.4 | 6.4 | 0.00 | 0.05 | 0.00 | ||
| 20260906144400 | 28 | 135 | 6.4 | 4.8 | 0.00 | 0.05 | 0.00 | ||
| 20260906142356 | 27 | 91 | 4.8 | 4.8 | 0.00 | 0.05 | 0.00 | ||
| 20260906135853 | 26 | 84 | 6.4 | 4.8 | 0.00 | 0.05 | 0.00 | ||
| 20260906134354 | 26 | 93 | 4.8 | 8.0 | 0.00 | 0.05 | 0.00 | ||
| 20260906132852 | 26 | 113 | 4.8 | 3.2 | 0.00 | 0.05 | 0.00 | ||
| 20260906132354 | 26 | 158 | 0.0 | 6.4 | 0.00 | 0.05 | 0.00 | ||
| 20260906131353 | 25 | 86 | 4.8 | 6.4 | 0.00 | 0.05 | 0.00 | ||
| 20260906130850 | 25 | 86 | 0.0 | 0.0 | 0.00 | 0.05 | 0.00 | ||
| 20260906130351 | 25 | 93 | 3.2 | 3.2 | 0.00 | 0.05 | 0.00 | ||
| 20260906125350 | 25 | 104 | 3.2 | 3.2 | 0.00 | 0.05 | 0.00 | ||
| 20260906124847 | 25 | 90 | 4.8 | 4.8 | 0.00 | 0.05 | 0.00 | ||
| 20260906124346 | 24 | 87 | 3.2 | 4.8 | 0.00 | 0.05 | 0.00 | ||
| 20260906123345 | 24 | 188 | 0.0 | 0.0 | 0.00 | 0.05 | 0.00 | ||
| 20260906122844 | 25 | 188 | 0.0 | 0.0 | 0.00 | 0.05 | 0.00 | ||
| 20260906121841 | 24 | 188 | 0.0 | 0.0 | 0.00 | 0.05 | 0.00 | ||
| 20260906121343 | 24 | 188 | 0.0 | 0.0 | 0.00 | 0.05 | 0.00 | ||
| 20260906120839 | 24 | 188 | 0.0 | 0.0 | 0.00 | 0.05 | 0.00 | ||
| 20260906120340 | 24 | 188 | 0.0 | 0.0 | 0.00 | 0.05 | 0.00 | ||
| 20260906115837 | 24 | 188 | 0.0 | 0.0 | 0.00 | 0.05 | 0.00 | ||
| 20260906115336 | 24 | 188 | 0.0 | 0.0 | 0.00 | 0.05 | 0.00 | ||
| 20260906114834 | 23 | 188 | 0.0 | 0.0 | 0.00 | 0.05 | 0.00 | ||
| 20260906114335 | 23 | 188 | 0.0 | 0.0 | 0.00 | 0.05 | 0.00 | ||
| 20260906113834 | 23 | 188 | 0.0 | 0.0 | 0.00 | 0.05 | 0.00 | ||
| 20260906113335 | 23 | 188 | 0.0 | 0.0 | 0.00 | 0.05 | 0.00 | ||
| 20260906112834 | 22 | 188 | 0.0 | 0.0 | 0.00 | 0.05 | 0.00 | ||
| 20260906112335 | 23 | 188 | 0.0 | 0.0 | 0.00 | 0.05 | 0.00 | ||
| 20260906111831 | 22 | 188 | 0.0 | 0.0 | 0.00 | 0.05 | 0.00 | ||
| 20260906111333 | 22 | 188 | 0.0 | 0.0 | 0.00 | 0.05 | 0.00 | ||
| 20260906105330 | 22 | 188 | 0.0 | 0.0 | 0.00 | 0.05 | 0.00 | ||
| 20260906104828 | 22 | 188 | 0.0 | 0.0 | 0.00 | 0.05 | 0.00 | ||
| 20260906103827 | 22 | 188 | 0.0 | 0.0 | 0.00 | 0.05 | 0.00 | ||
| 20260906102825 | 22 | 188 | 0.0 | 0.0 | 0.00 | 0.05 | 0.00 | ||
| 20260906102326 | 22 | 188 | 0.0 | 0.0 | 0.00 | 0.05 | 0.00 | ||
| 20260906101325 | 22 | 188 | 0.0 | 0.0 | 0.00 | 0.05 | 0.00 | ||
| 20260906100819 | 22 | 188 | 0.0 | 0.0 | 0.00 | 0.05 | 0.00 | ||
| 20260906100320 | 22 | 188 | 0.0 | 0.0 | 0.00 | 0.05 | 0.00 | ||
| 20260906095818 | 22 | 188 | 0.0 | 0.0 | 0.00 | 0.05 | 0.00 | ||
| 20260906095447 | 22 | 188 | 0.0 | 0.0 | 0.00 | 0.05 | 0.00 | ||
| 20260906095319 | 22 | 188 | 0.0 | 0.0 | 0.00 | 0.05 | 0.00 | ||
| 20260906094817 | 22 | 188 | 0.0 | 0.0 | 0.00 | 0.05 | 0.00 | ||
| 20260906093815 | 23 | 188 | 0.0 | 0.0 | 0.00 | 0.05 | 0.00 | ||
| 20260906093316 | 22 | 188 | 0.0 | 0.0 | 0.00 | 0.05 | 0.00 | ||
| 20260906092813 | 23 | 188 | 0.0 | 0.0 | 0.00 | 0.05 | 0.00 | ||
| 20260906091812 | 22 | 188 | 0.0 | 0.0 | 0.00 | 0.05 | 0.00 | ||
| 20260906091313 | 23 | 188 | 0.0 | 0.0 | 0.00 | 0.05 | 0.00 | ||
| 20260906090313 | 23 | 188 | 0.0 | 0.0 | 0.00 | 0.05 | 0.00 | ||
| 20260906085809 | 23 | 188 | 0.0 | 0.0 | 0.00 | 0.05 | 0.00 | ||
| 20260906085310 | 23 | 188 | 0.0 | 0.0 | 0.00 | 0.05 | 0.00 | ||
| 20260906084807 | 23 | 188 | 0.0 | 0.0 | 0.00 | 0.05 | 0.00 | ||
| 20260906084308 | 23 | 188 | 0.0 | 0.0 | 0.00 | 0.05 | 0.00 | ||
| 20260906083806 | 23 | 188 | 0.0 | 0.0 | 0.00 | 0.05 | 0.00 | ||
| 20260906083308 | 23 | 188 | 0.0 | 0.0 | 0.00 | 0.05 | 0.00 | ||
| 20260906082804 | 23 | 188 | 0.0 | 0.0 | 0.00 | 0.05 | 0.00 | ||
| 20260906082306 | 22 | 188 | 0.0 | 0.0 | 0.00 | 0.05 | 0.00 | ||
| 20260906081802 | 23 | 188 | 0.0 | 0.0 | 0.00 | 0.05 | 0.00 | ||
| 20260906081303 | 23 | 188 | 0.0 | 0.0 | 0.00 | 0.05 | 0.00 | ||
| 20260906080802 | 23 | 188 | 0.0 | 0.0 | 0.00 | 0.05 | 0.00 | ||
| 20260906074800 | 23 | 188 | 0.0 | 0.0 | 0.00 | 0.05 | 0.00 | ||
| 20260906074301 | 23 | 188 | 0.0 | 0.0 | 0.00 | 0.05 | 0.00 | ||
| 20260906073759 | 23 | 188 | 0.0 | 0.0 | 0.00 | 0.05 | 0.00 | ||
| 20260906072759 | 23 | 290 | 0.0 | 0.0 | 0.00 | 0.05 | 0.00 | ||
| 20260906071756 | 23 | 308 | 1.6 | 3.2 | 0.00 | 0.05 | 0.00 | ||
| 20260906070756 | 23 | 46 | 0.0 | 0.0 | 0.00 | 0.05 | 0.00 | ||
| 20260906065754 | 23 | 46 | 0.0 | 0.0 | 0.00 | 0.05 | 0.00 | ||
| 20260906065256 | 23 | 46 | 0.0 | 0.0 | 0.00 | 0.05 | 0.00 | ||
| 20260906064752 | 23 | 46 | 0.0 | 0.0 | 0.00 | 0.05 | 0.00 | ||
| 20260906063751 | 23 | 46 | 0.0 | 0.0 | 0.00 | 0.05 | 0.00 | ||
| 20260906063252 | 23 | 46 | 0.0 | 0.0 | 0.00 | 0.00 | 0.05 | ||
| 20260906062249 | 24 | 46 | 0.0 | 0.0 | 0.00 | 0.00 | 0.05 | ||
| 20260906061745 | 24 | 46 | 0.0 | 0.0 | 0.00 | 0.00 | 0.05 | ||
| 20260906061247 | 24 | 46 | 0.0 | 0.0 | 0.00 | 0.00 | 0.05 | ||
| 20260906060745 | 24 | 46 | 0.0 | 0.0 | 0.00 | 0.00 | 0.05 | ||
| 20260906060246 | 24 | 46 | 0.0 | 0.0 | 0.00 | 0.00 | 0.05 | ||
| 20260906055745 | 24 | 46 | 0.0 | 0.0 | 0.00 | 0.00 | 0.05 | ||
| 20260906055246 | 24 | 46 | 0.0 | 0.0 | 0.00 | 0.00 | 0.05 | ||
| 20260906054745 | 25 | 46 | 0.0 | 0.0 | 0.00 | 0.00 | 0.05 | ||
| 20260906052743 | 24 | 46 | 0.0 | 0.0 | 0.03 | 0.00 | 0.05 | ||
| 20260906051742 | 25 | 46 | 0.0 | 0.0 | 0.03 | 0.00 | 0.05 | ||
| 20260906051244 | 25 | 46 | 0.0 | 0.0 | 0.03 | 0.00 | 0.05 | ||
| 20260906050742 | 25 | 46 | 0.0 | 0.0 | 0.03 | 0.00 | 0.05 | ||
| 20260906050243 | 25 | 46 | 0.0 | 0.0 | 0.03 | 0.00 | 0.05 | ||
| 20260906045741 | 25 | 46 | 0.0 | 0.0 | 0.03 | 0.00 | 0.05 | ||
| 20260906045243 | 25 | 46 | 0.0 | 0.0 | 0.03 | 0.00 | 0.05 | ||
| 20260906044241 | 25 | 46 | 0.0 | 0.0 | 0.03 | 0.00 | 0.05 | ||
| 20260906043740 | 25 | 46 | 0.0 | 0.0 | 0.03 | 0.00 | 0.05 | ||
| 20260906043241 | 25 | 46 | 0.0 | 0.0 | 0.00 | 0.00 | 0.05 | ||
| 20260906042739 | 25 | 46 | 0.0 | 0.0 | 0.00 | 0.00 | 0.05 | ||
| 20260906041240 | 25 | 46 | 0.0 | 0.0 | 0.00 | 0.00 | 0.03 | ||
| 20260906040739 | 25 | 46 | 0.0 | 0.0 | 0.00 | 0.00 | 0.03 | ||
| 20260906040240 | 25 | 46 | 0.0 | 0.0 | 0.00 | 0.00 | 0.03 | ||
| 20260906035738 | 25 | 46 | 0.0 | 0.0 | 0.00 | 0.00 | 0.03 | ||
| 20260906035239 | 25 | 46 | 0.0 | 0.0 | 0.00 | 0.00 | 0.03 | ||
| 20260906034737 | 26 | 46 | 0.0 | 0.0 | 0.00 | 0.00 | 0.03 | ||
| 20260906025235 | 26 | 46 | 0.0 | 0.0 | 0.00 | 0.00 | 0.03 | ||
| 20260906024733 | 26 | 77 | 1.6 | 1.6 | 0.00 | 0.00 | 0.03 | ||
| 20260906024234 | 26 | 84 | 1.6 | 1.6 | 0.00 | 0.00 | 0.03 | ||
| 20260906022233 | 26 | 93 | 3.2 | 1.6 | 0.00 | 0.00 | 0.03 | ||
| 20260906021732 | 26 | 77 | 3.2 | 3.2 | 0.00 | 0.00 | 0.03 | ||
| 20260906021233 | 26 | 72 | 0.0 | 4.8 | 0.00 | 0.00 | 0.03 | ||
| 20260906020731 | 26 | 42 | 0.0 | 0.0 | 0.00 | 0.00 | 0.03 | ||
| 20260906014227 | 26 | 42 | 0.0 | 0.0 | 0.00 | 0.00 | 0.03 | ||
| 20260906013226 | 26 | 42 | 0.0 | 0.0 | 0.03 | 0.00 | 0.03 | ||
| 20260906011724 | 26 | 82 | 0.0 | 0.0 | 0.03 | 0.00 | 0.03 | ||
| 20260906010723 | 26 | 82 | 1.6 | 0.0 | 0.03 | 0.00 | 0.03 | ||
| 20260906005221 | 27 | 110 | 4.8 | 4.8 | 0.03 | 0.00 | 0.03 | ||
| 20260906004221 | 28 | 239 | 0.0 | 0.0 | 0.03 | 0.00 | 0.03 | ||
| 20260906002719 | 28 | 239 | 0.0 | 0.0 | 0.00 | 0.00 | 0.00 | ||
| 20260906002220 | 28 | 239 | 0.0 | 0.0 | 0.00 | 0.00 | 0.00 | ||
| 20260906001718 | 28 | 239 | 0.0 | 0.0 | 0.00 | 0.00 | 0.00 | ||
| 20260906000718 | 29 | 239 | 3.2 | 0.0 | 0.00 | 0.00 | 0.00 | ||
| 20260905234717 | 29 | 359 | 6.4 | 4.8 | 0.00 | 0.00 | 0.00 | ||
| 20260905234219 | 29 | 248 | 3.2 | 4.8 | 0.00 | 0.00 | 0.00 | ||
| 20260905232218 | 30 | 238 | 3.2 | 6.4 | 0.00 | 0.00 | 0.00 | ||
| 20260905230217 | 31 | 335 | 4.8 | 4.8 | 0.00 | 0.00 | 0.00 | ||
| 20260905225716 | 31 | 305 | 3.2 | 0.0 | 0.00 | 0.00 | 0.00 | ||
| 20260905224216 | 31 | 307 | 3.2 | 1.6 | 0.00 | 0.00 | 0.00 | ||
| 20260905222712 | 32 | 287 | 0.0 | 3.2 | 0.00 | 0.00 | 0.00 | ||
| 20260905220710 | 32 | 304 | 0.0 | 1.6 | 0.00 | 0.00 | 0.00 | ||
| 20260905220211 | 33 | 245 | 1.6 | 0.0 | 0.00 | 0.00 | 0.00 | ||
| 20260905215709 | 33 | 267 | 3.2 | 6.4 | 0.00 | 0.00 | 0.00 |